| time (UTC) | temp F | wind direction | speed knots | gust knots | rain 1hr in | rain 24hr in | rain mn in | humidity % | barometer mb |
| 20260510062804 | 52 | 0 | 0.0 | 0.0 | 0.00 | 0.57 | 0.03 | 95 | 1010.8 |
| 20260510061904 | 52 | 0 | 0.0 | 0.0 | 0.00 | 0.57 | 0.03 | 95 | 1010.8 |
| 20260510061004 | 52 | 0 | 0.0 | 0.0 | 0.00 | 0.57 | 0.03 | 95 | 1010.9 |
| 20260510060104 | 52 | 0 | 0.0 | 0.0 | 0.00 | 0.57 | 0.03 | 95 | 1010.8 |
| 20260510055204 | 52 | 0 | 0.0 | 0.0 | 0.00 | 0.57 | 0.03 | 95 | 1010.9 |
| 20260510054304 | 52 | 0 | 0.0 | 0.0 | 0.00 | 0.57 | 0.03 | 95 | 1010.9 |
| 20260510052504 | 51 | 0 | 0.0 | 0.0 | 0.00 | 0.57 | 0.03 | 94 | 1010.8 |
| 20260510051604 | 51 | 0 | 0.0 | 0.0 | 0.00 | 0.57 | 0.03 | 94 | 1010.8 |
| 20260510045804 | 51 | 0 | 0.0 | 0.0 | 0.00 | 0.57 | 0.03 | 94 | 1010.7 |
| 20260510044904 | 51 | 0 | 0.0 | 0.0 | 0.00 | 0.57 | 0.03 | 94 | 1010.7 |
| 20260510044004 | 52 | 241 | 0.0 | 2.6 | 0.00 | 0.57 | 0.03 | 94 | 1010.8 |
| 20260510043104 | 51 | 242 | 1.7 | 3.5 | 0.00 | 0.57 | 0.03 | 94 | 1010.9 |
| 20260510042204 | 51 | 244 | 1.7 | 3.5 | 0.00 | 0.57 | 0.03 | 94 | 1010.7 |
| 20260510041304 | 51 | 250 | 0.9 | 3.5 | 0.00 | 0.57 | 0.03 | 94 | 1010.7 |
| 20260510040404 | 51 | 252 | 0.0 | 3.5 | 0.00 | 0.57 | 0.03 | 94 | 1010.8 |
| 20260510035504 | 52 | 0 | 0.0 | 0.0 | 0.00 | 0.57 | 0.03 | 94 | 1010.8 |
| 20260510034604 | 52 | 0 | 0.0 | 0.0 | 0.00 | 0.57 | 0.03 | 94 | 1010.9 |
| 20260510033704 | 52 | 0 | 0.0 | 0.0 | 0.00 | 0.57 | 0.03 | 94 | 1010.7 |
| 20260510031904 | 52 | 0 | 0.0 | 0.0 | 0.00 | 0.57 | 0.03 | 94 | 1010.9 |
| 20260510031004 | 52 | 0 | 0.0 | 0.0 | 0.00 | 0.57 | 0.03 | 94 | 1011.1 |
| 20260510030104 | 52 | 0 | 0.0 | 0.0 | 0.00 | 0.57 | 0.03 | 93 | 1011.0 |
| 20260510025204 | 53 | 0 | 0.0 | 0.0 | 0.00 | 0.57 | 0.03 | 93 | 1011.1 |
| 20260510024304 | 53 | 0 | 0.0 | 0.0 | 0.00 | 0.57 | 0.03 | 93 | 1011.0 |
| 20260510023404 | 54 | 0 | 0.0 | 0.0 | 0.00 | 0.57 | 0.03 | 93 | 1011.0 |
| 20260510022504 | 54 | 0 | 0.0 | 0.0 | 0.00 | 0.57 | 0.03 | 93 | 1011.0 |
| 20260510021604 | 54 | 0 | 0.0 | 0.0 | 0.00 | 0.57 | 0.03 | 93 | 1011.0 |
| 20260510014904 | 55 | 0 | 0.0 | 0.0 | 0.00 | 0.57 | 0.03 | 93 | 1011.0 |
| 20260510014004 | 55 | 0 | 0.0 | 0.0 | 0.00 | 0.57 | 0.03 | 93 | 1011.0 |
| 20260510013104 | 55 | 0 | 0.0 | 0.0 | 0.00 | 0.57 | 0.03 | 93 | 1011.1 |
| 20260510012204 | 55 | 0 | 0.0 | 0.0 | 0.00 | 0.57 | 0.03 | 93 | 1011.2 |
| 20260510011304 | 56 | 0 | 0.0 | 0.0 | 0.00 | 0.57 | 0.03 | 93 | 1011.2 |
| 20260510010404 | 56 | 0 | 0.0 | 0.0 | 0.00 | 0.57 | 0.03 | 93 | 1011.2 |
| 20260510005507 | 56 | 0 | 0.0 | 0.0 | 0.00 | 0.57 | 0.03 | 93 | 1011.3 |
| 20260510003704 | 56 | 0 | 0.0 | 0.0 | 0.00 | 0.57 | 0.03 | 93 | 1011.7 |
| 20260510002804 | 56 | 0 | 0.0 | 0.0 | 0.00 | 0.57 | 0.03 | 93 | 1011.8 |
| 20260510001904 | 56 | 0 | 0.0 | 0.0 | 0.01 | 0.57 | 0.03 | 93 | 1011.9 |
| 20260510001004 | 56 | 0 | 0.0 | 0.0 | 0.01 | 0.57 | 0.03 | 93 | 1012.0 |
| 20260510000104 | 56 | 0 | 0.0 | 0.0 | 0.01 | 0.57 | 0.03 | 93 | 1012.1 |
| 20260509235204 | 56 | 0 | 0.0 | 0.0 | 0.01 | 0.57 | 0.03 | 93 | 1012.4 |
| 20260509234304 | 56 | 0 | 0.0 | 0.0 | 0.01 | 0.57 | 0.03 | 93 | 1012.5 |
| 20260509231604 | 56 | 0 | 0.0 | 0.0 | 0.02 | 0.56 | 0.02 | 93 | 1012.9 |
| 20260509225804 | 56 | 253 | 1.7 | 3.5 | 0.02 | 0.56 | 0.02 | 93 | 1013.0 |
| 20260509224904 | 56 | 252 | 0.9 | 3.5 | 0.02 | 0.56 | 0.02 | 93 | 1013.1 |
| 20260509224004 | 56 | 252 | 0.0 | 3.5 | 0.02 | 0.55 | 0.02 | 93 | 1013.0 |
| 20260509223104 | 56 | 0 | 0.0 | 0.0 | 0.04 | 0.55 | 0.02 | 93 | 1013.0 |
| 20260509222204 | 56 | 240 | 0.9 | 2.6 | 0.06 | 0.55 | 0.02 | 93 | 1013.0 |
| 20260509221304 | 56 | 239 | 0.0 | 2.6 | 0.06 | 0.54 | 0.01 | 93 | 1012.9 |
| 20260509220404 | 56 | 0 | 0.0 | 0.0 | 0.06 | 0.54 | 0.00 | 93 | 1013.0 |
| 20260509215504 | 56 | 0 | 0.0 | 0.0 | 0.07 | 0.54 | 0.54 | 92 | 1013.1 |
| 20260509213704 | 56 | 238 | 2.6 | 2.6 | 0.06 | 0.52 | 0.52 | 92 | 1012.9 |
| 20260509211904 | 56 | 223 | 2.6 | 5.2 | 0.04 | 0.50 | 0.50 | 92 | 1012.7 |
| 20260509211004 | 56 | 231 | 1.7 | 4.3 | 0.03 | 0.49 | 0.49 | 92 | 1012.6 |
| 20260509205204 | 56 | 242 | 0.9 | 3.5 | 0.01 | 0.46 | 0.46 | 91 | 1012.5 |
| 20260509204304 | 56 | 244 | 2.6 | 6.1 | 0.00 | 0.46 | 0.46 | 91 | 1012.2 |
| 20260509203404 | 56 | 252 | 4.3 | 7.8 | 0.01 | 0.46 | 0.46 | 91 | 1011.7 |
| 20260509202504 | 56 | 250 | 3.5 | 7.8 | 0.01 | 0.46 | 0.46 | 91 | 1011.6 |
| 20260509201604 | 56 | 251 | 3.5 | 6.1 | 0.01 | 0.46 | 0.46 | 91 | 1011.5 |
| 20260509200704 | 56 | 249 | 1.7 | 6.1 | 0.02 | 0.46 | 0.46 | 92 | 1011.6 |
| 20260509194904 | 56 | 266 | 3.5 | 7.0 | 0.09 | 0.46 | 0.46 | 92 | 1011.2 |
| 20260509193104 | 56 | 314 | 3.5 | 8.7 | 0.19 | 0.45 | 0.45 | 92 | 1010.6 |
| 20260509192204 | 56 | 359 | 4.3 | 7.8 | 0.22 | 0.45 | 0.45 | 92 | 1010.2 |
| 20260509191304 | 56 | 29 | 4.3 | 8.7 | 0.23 | 0.44 | 0.44 | 91 | 1010.0 |
| 20260509190404 | 57 | 40 | 4.3 | 8.7 | 0.23 | 0.43 | 0.43 | 91 | 1010.6 |
| 20260509185504 | 57 | 40 | 1.7 | 7.8 | 0.23 | 0.40 | 0.40 | 90 | 1010.8 |
| 20260509184604 | 57 | 9 | 0.0 | 4.3 | 0.21 | 0.35 | 0.35 | 90 | 1011.2 |
| 20260509183704 | 57 | 0 | 0.0 | 0.0 | 0.20 | 0.30 | 0.31 | 89 | 1011.6 |
| 20260509182804 | 58 | 0 | 0.0 | 0.0 | 0.19 | 0.24 | 0.24 | 88 | 1011.8 |
| 20260509181904 | 57 | 0 | 0.0 | 0.0 | 0.21 | 0.22 | 0.22 | 87 | 1012.1 |
| 20260509180104 | 58 | 231 | 0.9 | 2.6 | 0.20 | 0.20 | 0.20 | 87 | 1012.2 |
| 20260509175204 | 59 | 231 | 0.9 | 3.5 | 0.16 | 0.16 | 0.17 | 88 | 1012.1 |
| 20260509174304 | 60 | 225 | 0.0 | 4.3 | 0.13 | 0.13 | 0.13 | 88 | 1012.1 |
| 20260509173404 | 61 | 187 | 0.0 | 3.5 | 0.09 | 0.09 | 0.09 | 89 | 1012.1 |
| 20260509171604 | 62 | 0 | 0.0 | 0.0 | 0.01 | 0.01 | 0.01 | 88 | 1012.1 |
| 20260509165804 | 62 | 176 | 0.9 | 5.2 | 0.00 | 0.00 | 0.00 | 87 | 1012.0 |
| 20260509164904 | 62 | 146 | 0.9 | 5.2 | 0.00 | 0.00 | 0.00 | 86 | 1011.9 |
| 20260509164007 | 62 | 138 | 0.0 | 3.5 | 0.00 | 0.00 | 0.00 | 85 | 1011.7 |
| 20260509163104 | 62 | 137 | 0.9 | 3.5 | 0.00 | 0.00 | 0.00 | 85 | 1011.4 |
| 20260509162204 | 62 | 135 | 1.7 | 6.1 | 0.00 | 0.00 | 0.00 | 84 | 1011.0 |
| 20260509161304 | 62 | 136 | 2.6 | 6.1 | 0.00 | 0.00 | 0.00 | 85 | 1010.9 |
| 20260509160404 | 62 | 142 | 2.6 | 4.3 | 0.00 | 0.00 | 0.00 | 85 | 1010.7 |
| 20260509155504 | 62 | 141 | 2.6 | 4.3 | 0.00 | 0.00 | 0.00 | 84 | 1011.1 |
| 20260509154604 | 62 | 137 | 2.6 | 4.3 | 0.00 | 0.00 | 0.00 | 83 | 1011.4 |
| 20260509152804 | 63 | 128 | 1.7 | 4.3 | 0.00 | 0.00 | 0.00 | 82 | 1011.3 |
| 20260509151904 | 63 | 136 | 0.9 | 6.1 | 0.00 | 0.00 | 0.00 | 81 | 1011.4 |
| 20260509151007 | 64 | 138 | 0.9 | 4.3 | 0.00 | 0.00 | 0.00 | 81 | 1011.9 |
| 20260509150104 | 64 | 137 | 2.6 | 4.3 | 0.00 | 0.00 | 0.00 | 81 | 1012.2 |
| 20260509144304 | 64 | 115 | 2.6 | 5.2 | 0.00 | 0.00 | 0.00 | 81 | 1012.1 |
| 20260509143404 | 64 | 114 | 0.9 | 5.2 | 0.00 | 0.00 | 0.00 | 80 | 1012.1 |
| 20260509142504 | 65 | 121 | 1.7 | 2.6 | 0.00 | 0.00 | 0.00 | 79 | 1012.2 |
| 20260509141604 | 64 | 122 | 2.6 | 6.1 | 0.00 | 0.00 | 0.00 | 79 | 1012.2 |
| 20260509140704 | 65 | 125 | 3.5 | 7.0 | 0.00 | 0.00 | 0.00 | 79 | 1012.2 |
| 20260509134903 | 65 | 113 | 4.3 | 7.8 | 0.00 | 0.00 | 0.00 | 79 | 1012.2 |
| 20260509133104 | 65 | 128 | 4.3 | 9.6 | 0.00 | 0.00 | 0.00 | 78 | 1012.3 |
| 20260509132204 | 65 | 125 | 5.2 | 8.7 | 0.00 | 0.00 | 0.00 | 79 | 1012.2 |
| 20260509131304 | 65 | 113 | 4.3 | 9.6 | 0.00 | 0.00 | 0.00 | 79 | 1012.4 |
| 20260509130404 | 65 | 100 | 3.5 | 7.8 | 0.00 | 0.00 | 0.00 | 79 | 1012.4 |
| 20260509125507 | 65 | 93 | 3.5 | 7.0 | 0.00 | 0.00 | 0.00 | 80 | 1012.5 |
| 20260509124604 | 65 | 122 | 3.5 | 8.7 | 0.00 | 0.00 | 0.00 | 81 | 1012.8 |
| 20260509123704 | 65 | 128 | 3.5 | 8.7 | 0.00 | 0.00 | 0.00 | 81 | 1013.2 |
| 20260509121904 | 64 | 133 | 4.3 | 7.8 | 0.00 | 0.00 | 0.00 | 81 | 1013.5 |
| 20260509121004 | 65 | 133 | 4.3 | 10.4 | 0.00 | 0.00 | 0.00 | 81 | 1013.5 |
| 20260509120104 | 65 | 139 | 3.5 | 10.4 | 0.00 | 0.00 | 0.00 | 79 | 1013.5 |
| 20260509115204 | 65 | 132 | 4.3 | 10.4 | 0.00 | 0.00 | 0.00 | 79 | 1013.4 |
| 20260509113403 | 65 | 128 | 4.3 | 7.8 | 0.00 | 0.00 | 0.00 | 78 | 1013.4 |
| 20260509111604 | 65 | 132 | 3.5 | 7.8 | 0.00 | 0.00 | 0.00 | 79 | 1013.6 |
| 20260509105804 | 65 | 121 | 4.3 | 9.6 | 0.00 | 0.00 | 0.00 | 80 | 1013.8 |
| 20260509104904 | 65 | 129 | 4.3 | 9.6 | 0.00 | 0.00 | 0.00 | 80 | 1013.8 |
| 20260509104003 | 65 | 142 | 4.3 | 9.6 | 0.00 | 0.00 | 0.00 | 78 | 1014.0 |
| 20260509103104 | 65 | 134 | 3.5 | 9.6 | 0.00 | 0.00 | 0.00 | 76 | 1014.0 |
| 20260509102204 | 66 | 134 | 2.6 | 7.8 | 0.00 | 0.00 | 0.00 | 76 | 1013.8 |
| 20260509101304 | 66 | 132 | 3.5 | 9.6 | 0.00 | 0.00 | 0.00 | 76 | 1014.0 |
| 20260509100404 | 66 | 144 | 2.6 | 8.7 | 0.00 | 0.00 | 0.00 | 78 | 1013.8 |
| 20260509094604 | 66 | 133 | 0.9 | 7.0 | 0.00 | 0.00 | 0.00 | 78 | 1013.6 |
| 20260509093704 | 65 | 123 | 0.9 | 2.6 | 0.00 | 0.00 | 0.00 | 78 | 1013.6 |
| 20260509092803 | 65 | 113 | 1.7 | 6.1 | 0.00 | 0.00 | 0.00 | 80 | 1013.4 |
| 20260509091003 | 65 | 130 | 0.9 | 6.1 | 0.00 | 0.00 | 0.00 | 80 | 1013.2 |
| 20260509090103 | 65 | 161 | 0.9 | 5.2 | 0.00 | 0.00 | 0.00 | 82 | 1013.2 |
| 20260509085205 | 64 | 213 | 0.0 | 6.1 | 0.00 | 0.00 | 0.00 | 82 | 1013.5 |
| 20260509084303 | 64 | 217 | 0.0 | 1.7 | 0.00 | 0.00 | 0.00 | 82 | 1013.7 |
| 20260509083404 | 63 | 0 | 0.0 | 0.0 | 0.00 | 0.00 | 0.00 | 82 | 1013.8 |
| 20260509082503 | 63 | 0 | 0.0 | 0.0 | 0.00 | 0.00 | 0.00 | 83 | 1013.8 |
| 20260509081603 | 62 | 0 | 0.0 | 0.0 | 0.00 | 0.00 | 0.00 | 83 | 1013.8 |
| 20260509080703 | 62 | 0 | 0.0 | 0.0 | 0.00 | 0.00 | 0.00 | 83 | 1013.9 |
| 20260509075803 | 61 | 0 | 0.0 | 0.0 | 0.00 | 0.00 | 0.00 | 84 | 1013.9 |
| 20260509074903 | 61 | 0 | 0.0 | 0.0 | 0.00 | 0.00 | 0.00 | 85 | 1014.0 |
| 20260509074003 | 60 | 0 | 0.0 | 0.0 | 0.00 | 0.00 | 0.00 | 86 | 1013.9 |
| 20260509073103 | 59 | 0 | 0.0 | 0.0 | 0.00 | 0.00 | 0.00 | 87 | 1014.1 |
| 20260509072203 | 58 | 0 | 0.0 | 0.0 | 0.00 | 0.00 | 0.00 | 89 | 1014.1 |
| 20260509071303 | 58 | 0 | 0.0 | 0.0 | 0.00 | 0.00 | 0.00 | 90 | 1014.1 |
| 20260509065503 | 56 | 0 | 0.0 | 0.0 | 0.00 | 0.00 | 0.00 | 91 | 1014.2 |
| 20260509064603 | 55 | 0 | 0.0 | 0.0 | 0.00 | 0.00 | 0.00 | 92 | 1014.1 |